{"data":{"norad_id":69928,"intl_designator":"2026-156BM","name":"LEMUR-2-ALYX","alt_names":[],"object_type":"PAYLOAD","status":"ACTIVE","operator":null,"country":"US","launch_date":"2026-07-07","launch_site_code":"AFWTR","launch_vehicle":null,"mission":null,"orbit_class":"UNKNOWN","rcs_meters":null,"size_class":null,"mass_kg":null,"dimensions":null,"purposes":[],"wikipedia_slug":null,"has_3d_model":false,"image_url":null,"decayed_at":null,"tle_current":{"epoch":"2026-09-19T23:09:57.585312Z","epoch_age_seconds":64004,"freshness":"FRESH","line1":"1 69928U 26156BM  26262.96524983  .00001793  00000+0  17952-3 0  9994","line2":"2 69928  97.7488 162.2773 0007008 276.8855  83.1567 14.92627852 11135","mean_motion":14.92627852,"eccentricity":0.0007008,"inclination_deg":97.7488,"raan_deg":162.2773,"arg_perigee_deg":276.8855,"mean_anomaly_deg":83.1567,"bstar":0.00017952,"rev_number":1113,"period_min":96.474147797156,"perigee_km":584.86233356999,"apogee_km":594.62851757767,"semimajor_km":6967.8824255738,"source":"CELESTRAK","updated_at":"2026-09-20T09:00:25.206214Z"}}}